Tracking 30922 objects as of 2-Jul-2025
HD Live streaming from Space Station
objects crossing your sky now

OBJECT W

Track OBJECT W now!
10-day predictions


NORAD ID: 51844
Int'l Code: 2022-019W
Perigee: 441.4 km
Apogee: 452.9 km
Inclination: 97.4 °
Period: 93.4 minutes
Semi major axis: 6818 km
RCS: Unknown
Launch date: February 27, 2022
Source: People's Republic of China (PRC)
Launch site: Wenchang Satellite Launch Center (WSC)
Your satellite tracking list
STARLINK-1401
Track 1 satellite(s)




NASA's NSSDC Master Catalog

Two Line Element Set (TLE):
1 51844U 22019W   25182.88190654  .00019210  00000-0  45070-3 0  9997
2 51844  97.3926 262.5099 0008412 318.7595  41.3016 15.42062082185397
Source of the keplerian elements: AFSPC